Location: Shenandoah County Park
(38.9356°N, 78.4524°W)
Time: 05:51:38
(UTC-04:00)

Transit 2A - Pass Details

Date: 19 June 2024
Orbit: 591 x 960 km, 66.7° (Epoch: 23 July)

Event Time Altitude Azimuth Distance (km) Brightness Sun altitude
Rises 03:24:09 0° 318° (NW) 3,581 9.7 -20.7°
Reaches altitude 10° 03:27:07 10° 305° (NW) 2,665 8.8 -20.4°
Enters shadow 03:31:51 24° 256° (WSW) 1,860 7.6 -19.9°
